Hourly Weather Roundup
Issued by NWS Central Illinois

Home | Current Version | Previous Version | Text Only | Print | Product List | Glossary On
Versions: 1 2 3 4 5 6 7 8 9 10 11 12 13 14 15 16 17 18 19 20 21 22 23 24 25 26 27 28 29 30 31 32 33 34 35 36 37 38 39 40 41 42 43 44 45 46 47 48 49 50
000
NZUS43 KILX 231710
HWRILX

AREA WEATHER ROUNDUP
NATIONAL WEATHER SERVICE, LINCOLN IL
1200 PM CDT SAT MAY 23 2015


CITY           SKY/WX    TMP DP  RH WIND       PRES   REMARKS
BLOOMINGTON    MOSUNNY   76  49  38 S10       30.32F
CHAMPAIGN      MOSUNNY   79  44  28 S10G20    30.32F
DANVILLE       SUNNY     77  45  32 S9G17     30.31F
DECATUR        MOSUNNY   76  49  38 S12       30.32F
EFFINGHAM      PTSUNNY   74  47  37 S5        30.35S
FLORA          PTSUNNY   75  51  42 SE8       30.34F
GALESBURG      MOSUNNY   74  49  40 S9        30.30S
JACKSONVILLE   PTSUNNY   77  46  33 S9        30.31S
LACON          SUNNY     75  46  36 W6        30.29F
LAWRENCEVILLE  PTSUNNY   76  52  43 SE10      30.35F
LITCHFIELD     MOSUNNY   73  51  46 S9G23     30.32S
$$


CITY           SKY/WX    TMP DP  RH WIND       PRES   REMARKS
LINCOLN        MOSUNNY   78  49  36 S12       30.29F
MACOMB         MOSUNNY   76  49  39 SE7G18    30.32S
MATTOON        MOSUNNY   74  51  44 S10G17    30.33F
MT CARMEL AP   MOSUNNY   77  45  31 S10G17    30.34F
OLNEY-NOBLE AP MOSUNNY   73  52  46 S7        30.34F
PARIS          MOSUNNY   77  47  34 S12       30.35S
PEORIA         MOSUNNY   77  51  40 VRB7      30.30F
PONTIAC        SUNNY     80  42  26 S14G20    30.31S
RANTOUL        MOSUNNY   79  46  31 S7G16     30.32F
ROBINSON       PTSUNNY   76  51  42 S5        30.35F
SPRINGFIELD    MOSUNNY   77  51  40 S8        30.31S
TAYLORVILLE    MOSUNNY   73  50  43 SE10G17   30.32S
$$

...REGIONAL REPORTS...


CITY           SKY/WX    TMP DP  RH WIND       PRES   REMARKS
CHICAGO O`HARE MOSUNNY   74  43  32 S10       30.30F
KANKAKEE       SUNNY     78  49  37 SW6       30.32S
MOLINE         SUNNY     77  46  33 SE9       30.28S
MOUNT VERNON   SUNNY     75  52  43 S10G17    30.34S
PITTSFIELD     PTSUNNY   74  50  43 S9G17     30.31S
QUINCY         MOSUNNY   73  49  42 S9        30.29S
ROCKFORD       PTSUNNY   76  43  30 SW10      30.31S
$$


CITY           SKY/WX    TMP DP  RH WIND       PRES   REMARKS
BURLINGTON     MOSUNNY   74  52  46 S10       30.28S
CEDAR RAPIDS   SUNNY     74  48  39 S14G21    30.26S
DES MOINES     CLOUDY    68  49  50 S14       30.23F
KIRKSVILLE     PTSUNNY   69  54  58 S10G20    30.27F
OTTUMWA        PTSUNNY   71  53  52 S15       30.24F
ST LOUIS       PTSUNNY   76  48  37 SE14G24   30.30F
$$


CITY           SKY/WX    TMP DP  RH WIND       PRES   REMARKS
TERRE HAUTE    MOSUNNY   75  50  41 VRB7      30.34F
EVANSVILLE     SUNNY     75  50  41 S12       30.35F
INDIANAPOLIS   MOSUNNY   76  47  35 S12       30.35S
LAFAYETTE      SUNNY     76  45  33 VRB3      30.32F
MADISON        PTSUNNY   72  43  35 S8        30.29S
MILWAUKEE      MOSUNNY   73  42  32 SE14      30.30F
$$




USA.gov is the U.S. government's official web portal to all federal, state and local government web resources and services.